SCP
1 1 1 1 2 2 2 2 3 3 2 2 2 2 3 2 2 2 2 1 1 1 1 0 0 0 0 0 0 0 0 0 0 0 0 0 0 0 0 0 0 0 0
1 1 1 1 1 2 1 2 2 2 2 2 2 2 3 2 2 2 2 1 1 1 1 1 0 0 0 0 0 0 0 0 0 0 0 0 0 0 0 0 0 0 0
1 1 1 1 1 1 1 1 1 1 2 2 2 2 3 3 3 2 2 2 1 1 1 1 1 0 0 0 0 0 0 0 0 0 0 0 0 0 0 0 0 0 0
1 1 1 1 1 0 0 1 1 1 1 1 2 2 3 3 3 3 2 2 1 1 1 1 1 0 0 0 0 0 0 0 0 0 0 0 0 0 0 0 0 0 0
1 1 1 1 1 0 0 0 0 0 1 1 1 2 2 3 3 3 2 2 1 1 1 1 1 1 0 0 0 0 0 0 0 0 0 0 0 0 0 0 0 0 0
1 1 1 1 1 0 0 0 0 0 0 0 1 1 2 2 2 2 2 1 1 1 1 1 1 1 0 1 1 1 0 0 0 0 0 0 0 0 0 0 0 0 0
0 0 1 1 1 0 0 0 0 0 0 0 0 1 1 1 1 1 1 1 1 1 1 1 1 0 0 0 1 0 0 0 0 0 0 0 0 0 0 0 0 0 0
0 0 0 1 0 0 0 0 0 0 0 0 0 0 0 1 1 1 0 0 0 0 1 1 1 0 0 0 0 0 0 0 0 0 0 0 0 0 0 0 0 0 0
0 0 0 0 0 0 0 0 0 0 0 0 0 0 0 0 0 0 0 0 0 0 0 0 0 0 0 0 0 0 0 0 0 0 0 0 0 0 0 0 0 0 0
0 0 0 0 0 0 0 0 0 0 0 0 0 0 0 0 0 0 0 0 0 0 0 0 0 0 0 0 0 0 0 0 0 0 0 0 0 0 0 0 0 0 0
0 0 0 0 0 0 0 0 0 0 0 0 0 0 0 0 0 0 0 0 0 0 0 0 0 0 0 0 0 0 0 0 0 0 0 0 0 0 0 0 0 0 0
0 0 0 0 0 0 0 0 0 0 0 0 0 0 0 0 0 0 0 0 0 0 0 0 0 0 0 0 0 0 0 0 0 0 0 0 0 0 0 0 0 0 0
0 0 0 0 0 0 0 0 0 0 0 0 0 0 0 0 0 0 0 0 0 0 0 0 0 0 0 0 0 0 0 0 0 0 0 0 0 0 0 0 0 0 0
0 0 0 0 0 0 0 0 0 0 0 0 0 0 0 0 0 0 0 0 0 0 0 0 0 0 0 0 0 0 0 0 0 0 0 0 0 0 0 0 0 0 0
0 0 0 0 0 0 0 0 0 0 0 0 0 0 0 0 0 0 0 0 0 0 0 0 0 0 0 0 0 0 0 0 0 0 0 0 0 0 0 0 0 0 0
0 0 0 0 0 0 0 0 0 0 0 0 0 0 0 0 0 0 0 0 0 0 0 0 0 0 0 0 0 0 0 0 0 0 0 0 0 0 0 0 0 0 0
0 0 0 0 0 0 0 0 0 0 0 0 0 0 0 0 0 0 0 0 0 0 0 0 0 0 0 0 0 0 0 0 0 0 0 0 0 0 0 0 0 0 0
0 0 0 0 0 0 0 0 0 0 0 0 0 0 0 0 0 0 0 0 0 0 0 0 0 0 0 0 0 0 0 0 0 0 0 0 0 0 0 0 0 0 0
0 0 0 0 0 0 0 0 0 0 0 0 0 0 0 0 0 0 0 0 0 0 0 0 0 0 0 0 0 0 0 0 0 0 0 0 0 0 0 0 0 0 0
0 0 0 0 0 0 0 0 0 0 0 0 0 0 0 0 0 0 0 0 0 0 0 0 0 0 0 0 0 0 0 0 0 0 0 0 0 0 0 0 0 0 0
0 0 0 0 0 0 0 0 0 0 0 0 0 0 0 0 0 0 0 0 0 0 0 0 0 0 0 0 0 0 0 0 0 0 0 0 0 0 0 0 0 0 0
0 0 0 0 0 0 0 0 0 0 0 0 0 0 0 0 0 0 0 0 0 0 0 0 0 0 0 0 0 0 0 0 0 0 0 0 0 0 0 0 0 0 0
0 0 0 0 0 0 0 0 0 0 0 0 0 0 0 0 0 0 0 0 0 0 0 0 0 0 0 0 0 0 0 0 0 0 0 0 0 0 0 0 0 0 0
0 0 0 0 0 0 0 0 0 0 0 0 0 0 0 0 0 0 0 0 0 0 0 0 0 0 0 0 0 0 0 0 0 0 0 0 0 0 0 0 0 0 0
0 0 0 0 0 0 0 0 0 0 0 0 0 0 0 0 0 0 0 0 0 0 0 0 0 0 0 0 0 0 0 0 0 0 0 0 0 0 0 0 0 0 0
0 0 0 0 0 0 0 0 0 0 0 0 0 0 0 0 0 0 0 0 0 0 0 0 0 0 0 0 0 0 0 0 0 0 0 0 0 0 0 0 0 0 0
Wind_Speed
10 11 12 12 11 11 11 11 11 9 6 3 2 3 5 5 5 5 6 6 6 7 7 6 6 6 6 6 6 4 4 2 2 3 2 2 2 2 2 3 4 5 5
14 14 13 13 13 12 11 10 10 9 8 4 3 3 3 3 3 3 3 4 4 5 6 6 5 5 5 5 5 4 3 2 2 3 2 1 4 3 2 1 3 5 4
14 14 14 12 12 12 12 11 10 10 9 8 3 1 1 1 1 2 2 2 2 3 4 5 5 5 5 5 5 5 5 3 2 2 4 3 4 2 3 2 1 3 4
13 12 12 12 12 11 10 10 10 10 10 9 5 1 3 3 4 4 3 3 2 1 2 4 4 4 4 5 4 4 4 5 3 2 2 3 4 2 1 3 2 1 3
12 12 11 10 10 10 10 9 10 10 10 9 7 3 0 2 3 4 6 4 4 3 2 2 3 3 3 4 4 4 4 3 3 3 2 2 1 2 2 2 3 2 2
11 10 10 9 9 9 9 8 9 9 9 9 9 6 3 3 4 4 5 4 3 3 3 3 3 3 3 3 4 4 4 4 4 3 3 3 3 3 3 4 3 2 3
10 10 10 10 10 10 9 8 8 8 9 9 8 8 6 5 4 3 4 4 3 2 3 3 3 3 3 3 3 3 3 4 4 4 3 3 3 3 3 3 3 2 2
10 10 10 9 9 9 8 8 7 7 8 8 7 6 6 4 4 5 4 3 2 2 2 2 2 2 2 2 2 2 2 3 4 5 4 3 3 3 4 4 4 2 1
11 10 10 9 9 8 7 7 7 7 7 7 6 6 6 5 4 4 4 2 2 1 2 2 2 1 1 0 1 1 2 3 3 4 4 3 3 3 3 3 4 4 3
11 11 9 9 8 8 6 6 6 6 6 7 6 5 5 4 3 3 3 2 2 2 2 1 1 1 1 1 1 1 2 3 3 3 4 3 2 3 3 3 3 3 4
9 9 8 8 7 8 8 7 6 6 6 6 6 6 5 4 3 3 2 2 1 1 1 1 1 2 2 2 2 3 3 4 3 3 4 4 4 3 3 2 3 3 3
7 6 7 7 7 8 8 8 7 7 6 5 5 6 6 5 5 5 4 3 2 2 2 2 2 2 2 1 2 3 3 4 4 4 4 4 3 4 3 3 3 3 4
7 6 6 6 7 7 7 7 7 7 7 7 7 7 7 7 7 6 5 5 4 4 5 5 4 4 4 4 3 2 2 2 3 3 4 4 4 4 3 3 3 2 2
6 6 5 5 6 6 6 6 7 7 7 7 8 8 8 7 7 7 7 7 7 7 7 7 6 6 6 6 5 3 3 2 2 2 3 4 5 5 4 3 3 2 2
7 6 5 4 5 5 5 6 6 6 6 7 8 8 7 7 7 7 7 7 8 8 7 7 7 6 4 5 5 3 2 2 1 1 2 4 6 7 5 4 3 3 2
7 7 6 4 4 4 4 4 5 5 5 6 6 6 7 7 7 7 7 7 7 7 7 7 6 6 6 9 8 4 2 1 0 1 0 1 3 6 6 6 6 5 4
6 7 6 4 2 2 2 3 3 4 5 5 5 6 6 7 6 7 7 6 6 6 6 6 6 6 8 14 13 10 3 2 1 1 1 1 2 3 3 4 4 3 3
6 6 6 4 3 1 1 1 2 3 4 4 5 5 5 6 6 6 6 5 4 4 4 5 5 6 10 16 15 12 6 4 4 3 1 3 3 3 4 4 3 1 1
3 4 4 3 2 1 0 1 2 2 3 4 4 4 4 5 5 6 5 4 4 4 4 4 6 7 9 16 16 12 5 5 6 5 5 4 3 3 6 5 4 2 1
4 4 5 4 4 3 1 2 1 1 2 2 2 3 3 4 5 5 4 4 4 4 5 6 6 7 7 15 16 12 4 4 4 4 5 6 4 4 4 5 5 5 3
4 5 5 5 5 3 0 1 1 2 2 1 3 3 4 4 4 5 4 5 5 6 6 6 6 7 8 12 16 13 4 3 3 3 3 3 5 4 4 4 4 5 5
5 5 5 6 6 4 1 1 2 3 1 1 3 4 4 4 5 5 5 5 6 6 6 5 6 5 7 9 12 14 10 5 2 1 2 2 4 4 3 3 3 5 6
4 4 4 6 6 5 3 2 4 2 1 3 4 4 4 5 5 5 5 5 5 4 5 5 5 5 5 8 14 14 13 10 3 2 3 3 5 5 4 4 5 4 4
4 4 5 6 6 6 5 4 4 2 3 4 4 4 4 4 4 4 4 4 4 4 4 5 5 5 5 6 7 6 6 7 6 4 5 7 8 6 5 5 4 3 3
3 3 4 4 5 5 5 6 4 3 3 4 4 4 3 3 4 4 3 3 3 2 2 2 3 4 5 7 10 7 6 5 4 4 5 5 5 5 5 5 5 4 4
2 4 5 4 4 4 5 6 5 2 3 3 3 3 3 3 3 3 2 4 3 5 5 5 4 3 5 8 10 13 14 13 10 8 7 7 6 6 6 6 5 5 5
Wind_Direction
8 14 22 23 22 20 15 11 5 359 354 336 248 212 208 199 193 194 187 185 182 178 171 167 166 163 160 162 153 138 133 131 133 98 40 347 329 274 236 195 176 191 195
8 10 13 17 16 13 8 5 358 349 345 324 274 239 221 206 186 176 164 166 169 172 173 162 160 158 149 148 149 141 138 143 138 129 114 343 332 318 306 209 186 196 190
5 3 4 8 9 8 3 358 351 346 342 333 311 281 128 94 116 146 162 141 153 170 165 165 159 161 158 163 163 155 151 161 176 150 148 161 220 290 318 309 228 191 188
358 360 1 2 3 360 357 354 351 350 347 343 335 276 194 187 184 166 163 134 126 151 159 160 161 161 161 163 167 162 157 154 173 186 177 163 158 164 296 319 322 237 211
351 356 358 356 356 354 354 352 352 355 353 352 349 343 154 162 142 138 137 129 122 115 113 153 156 155 161 169 171 163 166 163 167 174 165 157 160 159 163 260 304 326 273
349 352 353 353 352 351 353 353 355 357 357 0 4 10 36 87 123 133 141 141 134 130 136 145 154 157 165 174 174 170 174 178 174 177 175 170 169 186 178 206 237 265 287
349 350 355 354 351 349 351 354 359 0 358 5 13 19 30 50 82 108 123 131 133 140 156 144 160 160 166 174 172 176 185 181 181 187 190 188 188 174 168 175 203 229 283
351 352 353 351 346 346 350 353 360 2 0 6 12 21 31 42 50 60 80 94 103 131 148 145 150 143 148 161 170 177 197 192 200 201 189 185 186 177 172 167 161 183 284
354 355 354 351 349 346 352 355 2 5 4 7 14 23 33 45 56 60 64 70 71 91 102 125 127 121 123 162 199 204 203 184 191 193 188 182 185 180 176 167 162 165 200
353 356 354 351 351 349 353 2 9 10 9 11 15 22 25 34 45 55 57 56 46 45 50 56 52 14 309 295 270 249 211 186 188 182 173 178 182 182 177 176 178 176 179
341 344 345 345 351 0 8 11 9 11 13 15 15 18 16 20 30 34 23 20 16 9 8 354 342 308 274 253 240 238 215 195 194 189 182 196 188 186 189 181 180 185 178
335 337 341 348 359 10 12 13 13 15 8 8 17 19 19 25 30 28 20 16 7 360 356 355 354 340 326 321 272 253 239 212 202 198 192 209 198 195 194 189 196 194 190
334 339 345 352 358 7 10 12 14 17 14 17 24 27 27 30 29 24 25 34 40 46 44 46 41 31 28 23 5 321 285 258 237 212 198 204 186 192 194 194 197 196 191
340 352 354 354 358 2 3 8 13 17 23 25 29 31 28 27 29 32 37 40 45 55 58 59 59 56 46 35 25 16 356 335 301 256 219 203 188 191 188 186 190 178 168
0 4 360 357 358 4 7 12 15 15 21 29 31 27 26 30 36 41 43 46 51 55 56 62 55 47 44 30 19 7 7 5 351 295 229 212 199 194 180 167 169 159 150
4 3 2 5 5 11 14 18 19 15 23 32 28 23 28 32 35 38 43 49 49 48 54 57 54 43 34 26 22 13 347 335 324 290 281 199 177 185 178 166 161 155 150
358 358 358 357 357 1 22 25 20 26 33 30 24 23 28 33 30 36 41 42 42 44 46 43 41 32 22 29 28 30 31 19 326 228 177 145 141 146 150 156 144 134 134
354 350 347 349 346 359 5 27 40 42 37 27 23 24 32 35 31 36 37 35 35 40 39 36 32 28 24 29 29 29 29 31 30 31 83 115 119 153 163 158 147 137 91
340 332 332 332 341 337 255 101 55 36 33 23 21 25 39 40 36 32 26 23 34 35 32 28 29 28 14 23 28 32 24 40 37 37 51 82 101 129 155 150 148 131 67
336 336 338 348 351 323 264 114 81 14 358 357 27 47 54 50 42 32 26 26 40 41 39 36 32 30 19 20 26 30 31 39 34 33 33 45 61 78 129 147 145 143 146
336 347 352 348 334 320 303 130 254 275 277 351 53 60 58 58 52 43 37 41 46 44 40 37 28 24 16 14 21 25 30 27 31 31 15 4 24 53 87 125 142 158 150
345 352 353 342 336 342 7 329 293 277 287 77 76 66 55 59 60 53 42 37 41 43 32 25 18 10 5 7 11 21 28 32 47 16 341 335 13 49 73 100 127 133 129
349 346 351 348 351 1 24 1 311 305 107 104 101 93 74 60 57 58 51 40 35 40 31 24 19 4 358 1 10 16 22 26 32 8 14 37 50 60 60 69 95 105 115
345 346 356 0 353 354 11 2 343 26 112 122 124 119 98 77 59 51 47 49 37 35 32 27 16 2 359 4 3 4 10 16 24 25 37 56 63 62 57 56 63 77 104
340 349 355 349 345 355 3 359 2 49 100 123 131 131 123 112 87 64 46 48 32 27 31 12 360 3 3 358 13 27 24 20 23 40 50 49 49 53 50 51 54 59 73
346 352 350 346 344 357 357 354 358 50 113 123 134 144 147 139 125 111 67 25 9 8 18 17 13 349 358 13 33 38 39 38 43 58 57 55 54 56 55 58 57 54 60